Sexton Summit, OR

3:28 AM PST on November 20, 2019 (GMT -0800)
Sexton Summit

Weather History for KSXT - October, 2019

Change the Weather History Date:

Monday, October 21, 2019

  Actual Average Record
Temperature  
Mean Temperature 50 °F -  
Max Temperature 59 °F 53 °F 75 °F (1999)
Min Temperature 44 °F 40 °F 33 °F (2007)
Degree Days  
Heating Degree Days 14    
Moisture  
Dew Point 40 °F    
Average Humidity 73    
Maximum Humidity 93    
Minimum Humidity 46    
Precipitation  
Precipitation 0.00 in - - ()
Sea Level Pressure  
Sea Level Pressure 30.29 in    
Wind  
Wind Speed 5 mph (SSW)    
Max Wind Speed 8 mph    
Max Gust Speed -    
Visibility 8 miles    
Events Fog , Rain    
Averages and records for this station are not official NWS values.
T = Trace of Precipitation, MM = Missing Value Source: NWS Daily Summary

Daily Weather History Graph

Daily Weather History Graph

Search for Another Location

Airport or City:

Astronomy

Oct. 21, 2019 Rise Set
Actual Time 7:33 AM PDT 6:21 PM PDT
Civil Twilight 7:04 AM PDT 6:50 PM PDT
Nautical Twilight 6:32 AM PDT 7:23 PM PDT
Astronomical Twilight 5:59 AM PDT 7:56 PM PDT
Moon No Moon Rise 3:00 PM PDT (10/21)
Length of Visible Light 11h 45m
Length of Day
10h 48m
Waning Gibbous, 47% of the Moon is Illuminated
Oct 21
Waning Gibbous
Oct 27
New
Nov 4
First Quarter
Nov 12
Full
Nov 19
Last Quarter

Hourly Weather History & Observations

Time (PDT) Temp. Windchill Dew Point Humidity Pressure Visibility Wind Dir Wind Speed Gust Speed Precip Events Conditions
12:23 AM 46.0 °F 42.5 °F 43.0 °F 89% 30.24 in 6.0 mi SW 6.9 mph - N/A   Scattered Clouds
12:36 AM 46.0 °F 41.9 °F 43.0 °F 89% 30.23 in 2.5 mi SSW 8.1 mph - N/A   Mostly Cloudy
12:41 AM 46.0 °F 41.9 °F 43.0 °F 89% 30.23 in 1.2 mi SSW 8.1 mph - N/A   Mostly Cloudy
12:51 AM 46.4 °F 42.9 °F 42.8 °F 87% 30.23 in 0.5 mi SSW 6.9 mph - N/A Fog Fog
12:56 AM 46.0 °F 43.1 °F 43.0 °F 89% 30.22 in 0.5 mi SSW 5.8 mph - N/A Fog Fog
1:12 AM 46.0 °F 42.5 °F 43.0 °F 89% 30.24 in 0.2 mi WSW 6.9 mph - N/A Fog Fog
1:38 AM 45.0 °F 42.6 °F 42.1 °F 90% 30.24 in 10.0 mi Variable 4.6 mph - N/A   Scattered Clouds
1:56 AM 45.0 °F 43.5 °F 42.1 °F 90% 30.24 in 10.0 mi West 3.5 mph - N/A   Clear
2:56 AM 45.0 °F 42.6 °F 41.0 °F 86% 30.24 in 10.0 mi West 4.6 mph - N/A   Clear
3:39 AM 45.0 °F 42.6 °F 41.0 °F 86% 30.26 in 0.8 mi SSW 4.6 mph - N/A   Scattered Clouds
3:42 AM 44.1 °F 41.5 °F 41.0 °F 89% 30.26 in 0.2 mi SSW 4.6 mph - N/A Fog Fog
3:56 AM 45.0 °F - 43.0 °F 93% 30.23 in 0.2 mi Calm Calm - 0.00 in Fog , Rain Light Rain
4:10 AM 44.1 °F 42.5 °F 41.0 °F 89% 30.27 in 5.0 mi SW 3.5 mph - 0.00 in   Overcast
4:56 AM 46.0 °F 43.9 °F 39.9 °F 79% 30.25 in 10.0 mi SW 4.6 mph - 0.00 in   Overcast
5:56 AM 46.0 °F 43.1 °F 41.0 °F 83% 30.26 in 10.0 mi SSW 5.8 mph - N/A   Overcast
6:56 AM 45.0 °F 41.8 °F 43.0 °F 93% 30.29 in 10.0 mi South 5.8 mph - N/A   Overcast
7:56 AM 45.0 °F 41.8 °F 41.0 °F 86% 30.30 in 10.0 mi South 5.8 mph - N/A   Mostly Cloudy
8:56 AM 48.0 °F - 41.0 °F 77% 30.31 in 10.0 mi South 3.5 mph - N/A   Partly Cloudy
9:56 AM 51.1 °F - 39.0 °F 63% 30.33 in 10.0 mi Variable 3.5 mph - N/A   Partly Cloudy
10:56 AM 53.1 °F - 36.0 °F 52% 30.33 in 10.0 mi South 4.6 mph - N/A   Clear
11:56 AM 55.0 °F - 39.0 °F 55% 30.33 in 10.0 mi Variable 3.5 mph - 0.00 in   Partly Cloudy
12:56 PM 57.9 °F - 37.0 °F 46% 30.32 in 10.0 mi Calm Calm - N/A   Clear
1:56 PM 57.9 °F - 41.0 °F 53% 30.32 in 10.0 mi Calm Calm - N/A   Clear
2:56 PM 57.0 °F - 37.0 °F 47% 30.32 in 10.0 mi Calm Calm - N/A   Clear
3:56 PM 57.0 °F - 37.9 °F 49% 30.33 in 10.0 mi Calm Calm - N/A   Clear
4:56 PM 55.0 °F - 39.0 °F 55% 30.34 in 10.0 mi NW 4.6 mph - N/A   Clear
5:56 PM 55.0 °F - 37.9 °F 53% 30.33 in 10.0 mi Variable 3.5 mph - N/A   Clear
6:56 PM 53.1 °F - 39.9 °F 61% 30.35 in 10.0 mi North 4.6 mph - N/A   Clear
7:56 PM 53.1 °F - 37.9 °F 57% 30.36 in 10.0 mi NNE 6.9 mph - N/A   Clear
8:56 PM 51.1 °F - 39.0 °F 63% 30.36 in 10.0 mi NNE 6.9 mph - N/A   Clear
9:56 PM 51.1 °F - 39.0 °F 63% 30.35 in 10.0 mi East 3.5 mph - N/A   Clear
10:56 PM 51.1 °F - 41.0 °F 68% 30.34 in 10.0 mi SE 5.8 mph - N/A   Clear
11:56 PM 52.0 °F - 39.0 °F 61% 30.34 in 10.0 mi Calm Calm - N/A   Clear